Regional Weather Roundup
Issued by NWS

Home | Current Version | Previous Version | Graphics & Text | Print | Product List | Glossary On
Versions: 1 2 3 4 5 6 7 8 9 10 11 12 13 14 15 16 17 18 19 20 21 22 23 24 25 26 27 28 29 30 31 32 33 34 35 36 37 38 39 40 41 42 43 44 45 46 47 48 49 50
000
ASUS43 KTOP 281859
RWRKS

WEATHER ROUNDUP FOR KANSAS
NATIONAL WEATHER SERVICE GOODLAND KS
200 PM CDT SAT MAR 28 2015

NOTE:  "FAIR" INDICATES FEW OR NO CLOUDS BELOW 12,000 FEET WITH NO
SIGNIFICANT WEATHER AND/OR OBSTRUCTIONS TO VISIBILITY.

KSZ001>006-013>018-027>032-041>047-282000-
NORTHWEST KANSAS

CITY           SKY/WX    TMP DP  RH WIND       PRES   REMARKS
GOODLAND       SUNNY     76  29  17 S9G16     29.98F
HAYS           SUNNY     66  39  37 E12       30.01F
HILL CITY      SUNNY     68  36  30 SE8       30.00F
RUSSELL        SUNNY     67  37  33 E13       30.00F
$$

KSZ061>065-074>080-084>089-282000-
SOUTHWEST KANSAS

CITY           SKY/WX    TMP DP  RH WIND       PRES   REMARKS
DODGE CITY     SUNNY     75  37  25 E12       30.01F
ELKHART          N/A     79  36  21 W2          N/A
GARDEN CITY    SUNNY     75  35  23 S5        29.99F
GREAT BEND     SUNNY     70  39  32 SE13      30.01F
LIBERAL        SUNNY     77  39  25 CALM      30.02F
$$

KSZ066>073-081>083-090>101-282000-
SOUTHEAST KANSAS

CITY           SKY/WX    TMP DP  RH WIND       PRES   REMARKS
CHANUTE        SUNNY     59  39  47 SE8       30.08F
COFFEYVILLE    SUNNY     63  41  44 CALM      30.07S
HUTCHINSON     SUNNY     67  40  37 E10       30.02F
MEDICINE LODGE   N/A     73  40  30 E8        29.98F
NEWTON         SUNNY     64  37  36 SE8       30.06F
PARSONS        SUNNY     62  41  46 SE8       30.08F
WICHITA INTL   SUNNY     67  40  37 E8        30.02F
WICHITA JABRA  SUNNY     65  40  39 SE10      30.03F
WINFIELD       SUNNY     69  44  40 E6        30.02F
$$

KSZ007>012-019>026-033>040-048>060-102>105-282000-
NORTHEAST KANSAS

CITY           SKY/WX    TMP DP  RH WIND       PRES   REMARKS
CONCORDIA      SUNNY     60  33  36 E9        30.04F
EMPORIA        SUNNY     57  34  41 E13G22    30.07F
LAWRENCE       SUNNY     53  30  41 SE16      30.15S
MANHATTAN      SUNNY     58  34  40 SE13      30.07F
OLATHE IND     SUNNY     50  30  46 SE15      30.15F
OLATHE EXE     SUNNY     49  30  48 SE14      30.15S
SALINA         SUNNY     64  37  36 SE13G21   30.04F
TOPEKA BILLARD SUNNY     54  31  41 SE13      30.12F
TOPEKA FORBES  SUNNY     56  31  38 SE14G20   30.11F
$$



USA.gov is the U.S. government's official web portal to all federal, state and local government web resources and services.